Flag for Israel Weather past 2 weeks in Holon, Israel

Now
81 °F

Passing clouds.


Feels Like: 83 °F
Forecast: 76 / 84 °F
Wind: 8 mph from Northwest

Location: Dov Airport

Current Time: Sep 20, 2014 at 12:54:52 AM

Latest Report: Sep 19, 2014 at 9:50 PM


Visibility: N/A

Pressure: 29.95 "Hg

Humidity: 62%

Dew point: 66 °F

Location of HolonLocation

Historic Weather in Holon — Graph

°F

Holon temperature yesterday

Maximum temperature yesterday: 86 °F (at 3:50 PM)
Minimum temperature yesterday: 75 °F (at 5:50 AM)
Average temperature yesterday: 82 °F

Past Weeks' High & Low Weather Summary

 TemperatureHumidityPressure
High91 °F (Sep 17, 3:50 PM)83% (Sep 5, 4:50 AM)29.95 "Hg (Sep 5, 4:50 AM)
Low75 °F (Sep 10, 6:50 AM)31% (Sep 17, 9:50 AM)29.68 "Hg (Sep 17, 3:50 PM)
Average83 °F62%29.84 "Hg
* Reported Sep 4 9:50 PM — Sep 19 9:50 PM, Holon, Weather by CustomWeather, © 2014

Note: Actual official high and low records may vary slightly from our data, if they occured in-between our weather recording intervals... More about our weather records

Advertising

Holon weather history for previous 24 hours

 ConditionsComfort  
Time TempWeatherWind HumidityBarometerVisibility
9:50 PM
Sep 19
81 °FPassing clouds.8 mph62%29.95 "HgN/A
8:50 PM81 °FPassing clouds.8 mph58%29.95 "HgN/A
7:50 PM81 °FPassing clouds.10 mph66%29.92 "HgN/A
6:50 PM81 °FPassing clouds.9 mph62%29.92 "HgN/A
5:50 PM84 °FPassing clouds.10 mph58%29.92 "HgN/A
4:50 PM84 °FPassing clouds.12 mph58%29.92 "HgN/A
3:50 PM86 °FPassing clouds.12 mph55%29.92 "HgN/A
2:50 PM84 °FPassing clouds.10 mph51%29.92 "HgN/A
1:50 PM84 °FPassing clouds.9 mph51%29.92 "HgN/A
12:50 PM84 °FPassing clouds.9 mph51%29.95 "HgN/A
11:50 AM84 °FPassing clouds.8 mph58%29.95 "HgN/A
10:50 AM82 °FPassing clouds.7 mph62%29.95 "HgN/A
9:50 AM82 °FScattered clouds.3 mph58%29.95 "HgN/A
8:50 AM82 °FScattered clouds.2 mph58%29.95 "HgN/A
7:50 AM79 °FScattered clouds.5 mph65%29.92 "HgN/A
6:50 AM75 °FPassing clouds.5 mph69%29.92 "HgN/A
5:50 AM75 °FPassing clouds.3 mph69%29.92 "HgN/A
4:50 AM77 °FPassing clouds.5 mph65%29.92 "HgN/A
Weather by CustomWeather, © 2014

See weather overviewHow to use our weather pages